#timestamp,LO_Frequency,Hit,StdDev 
1652284815.8,286046998.7,N
1652284835.7,286047001.2,N
1652284855.5,286046999.2,N
1652284875.3,286046998.7,N
1652284895.2,286047001.2,N
1652284915.0,286046998.8,N
1652284915.9,286046998.8,N
1652284935.7,286046999.6,N
1652284955.6,286047001.1,N
1652284975.4,286047000.9,N
1652284995.3,286047000.2,N
1652285015.1,286047001.0,N
1652285016.0,286047001.0,N
1652285035.8,286047000.5,N
1652285055.7,286047000.3,N
1652285075.5,286047000.0,N
1652285095.4,286047000.8,N
1652285115.2,286047000.2,N
1652285135.0,286047000.2,N
1652285135.9,286047000.2,N
1652285155.8,286047002.3,N
1652285175.6,286047000.1,N
1652285195.4,286047001.3,N
1652285215.3,286047001.7,N
1652285235.1,286047002.2,N
1652285255.9,286047000.3,N
1652285275.7,286047002.7,N
1652285295.5,286047002.4,N
1652285315.4,286047001.6,N
1652285335.2,286047001.6,N
1652285355.0,286046999.7,N
1652285356.0,286046999.7,N
1652285375.8,286047002.3,N
1652285395.6,286047002.8,N
1652285415.5,286047001.7,N
1652285435.3,286047001.7,N
1652285455.1,286047002.0,N
1652285475.9,286047001.4,N
1652285495.7,286047001.5,N
1652285515.6,286047004.1,Y
1652285535.4,286047001.5,P
1652285555.2,286047002.0,P
1652285575.1,286047001.4,P
1652285576.0,286047001.4,Y
1652285595.8,286047000.2,P
1652285615.6,286047000.4,N
1652285635.5,286046999.7,N
1652285655.3,286047000.2,N
1652285675.2,286047002.4,Y
1652285695.9,286047002.8,P
1652285715.7,286047002.6,N
1652285735.6,286047000.2,N
1652285755.4,286047000.9,N
1652285775.3,286047002.3,N
1652285795.1,286046999.8,N
1652285796.0,286046999.8,N
1652285815.8,286047000.2,N
1652285835.7,286047000.3,N
1652285855.5,286047000.1,N
1652285875.4,286047000.0,N
1652285895.2,286047000.6,N
1652285915.0,286047000.3,N
1652285915.9,286047000.3,N
1652285935.8,286047002.3,N
1652285955.6,286047002.4,N
1652285975.4,286047002.5,N
1652285995.3,286047002.0,N
1652286015.1,286047002.6,N
1652286035.9,286047002.1,N
1652286055.7,286047000.1,N
1652286075.5,286047002.3,N
1652286095.4,286047004.1,Y
1652286115.2,286047002.0,P
1652286135.0,286047004.2,P
1652286135.9,286047004.2,P
1652286155.8,286047003.4,N
1652286175.6,286047003.1,N
1652286195.5,286047003.0,N
1652286215.3,286047004.2,Y
1652286235.1,286047000.2,P
1652286255.9,286047000.3,N
1652286275.7,286047000.5,N
1652286295.6,286047001.0,N
1652286315.4,286047001.2,N
1652286335.2,286047002.7,N
1652286355.1,286046999.7,N
1652286356.0,286046999.7,N
1652286375.8,286046999.7,N
1652286395.6,286047002.0,N
1652286415.5,286047001.6,N
1652286435.3,286047002.4,N
1652286455.2,286047002.8,N
1652286475.9,286047000.0,N
1652286495.7,286047000.2,N
1652286515.6,286047000.3,N
1652286535.4,286047000.8,N
1652286555.2,286047001.1,N
1652286575.1,286046998.8,N
1652286576.0,286046998.8,N
1652286595.8,286046998.1,N
1652286615.7,286047000.0,N
1652286635.5,286046998.1,N
1652286655.3,286047000.5,N
1652286675.2,286047000.5,N
1652286695.0,286046998.4,N
1652286695.9,286046998.4,N
1652286715.7,286046998.5,N
1652286735.6,286047002.6,N
1652286755.4,286047001.0,N
1652286775.3,286047000.4,N
1652286795.1,286046999.7,N
1652286815.8,286047000.2,N
1652286835.7,286047002.7,N
1652286855.5,286047000.7,N
1652286875.4,286047000.4,N
1652286895.2,286046998.9,N
1652286915.0,286046999.4,N
1652286915.9,286046999.4,N
1652286935.8,286046998.3,N
1652286955.6,286046998.3,N
1652286975.5,286047001.1,N
1652286995.3,286046998.8,N
1652287015.1,286047000.2,N
1652287035.9,286046999.9,N
1652287055.7,286046999.8,N
1652287075.5,286047000.0,N
1652287095.4,286046998.2,N
1652287115.2,286046998.4,N
1652287135.1,286047000.8,N
1652287136.0,286047000.8,N
1652287155.8,286047000.1,N
1652287175.6,286046999.9,N
1652287195.5,286046998.5,N
1652287215.3,286047000.8,N
1652287235.1,286046998.6,N
1652287255.9,286047000.7,N
1652287275.7,286046999.8,N
1652287295.6,286046999.8,N
1652287315.4,286047002.6,N
1652287335.2,286047001.7,N
1652287355.1,286047004.3,Y
1652287356.0,286047004.3,P
1652287375.8,286047001.5,N
1652287395.7,286047002.7,N
1652287415.5,286047002.0,N
1652287435.3,286047002.2,N
1652287455.2,286047003.9,N
1652287475.0,286047004.0,N
1652287475.9,286047004.0,N
1652287495.7,286047003.7,N
1652287515.6,286047003.9,N
1652287535.4,286047003.5,N
1652287555.3,286047004.3,Y
1652287575.1,286046998.7,P
1652287576.0,286046998.7,N
1652287595.8,286046998.7,N
1652287615.7,286046996.5,N
1652287635.5,286046996.8,N
1652287655.4,286046999.6,N
1652287675.2,286046999.1,N
1652287695.0,286046998.7,N
1652287695.9,286046998.7,N
1652287715.8,286047000.4,N
1652287735.6,286047001.2,N
1652287755.4,286046998.1,N
1652287775.3,286046999.0,N
1652287795.1,286046998.1,N
1652287815.9,286047000.5,N
1652287835.7,286047000.4,N
1652287855.5,286047001.1,N
1652287875.4,286047001.0,N
1652287895.2,286046998.4,N
1652287915.0,286046998.7,N
1652287915.9,286046998.7,N
1652287935.8,286046999.1,N
1652287955.6,286046999.4,N
1652287975.5,286046998.4,N
1652287995.3,286047000.8,N
1652288015.1,286046998.5,N
1652288035.9,286047000.9,N
1652288055.7,286046999.9,N
1652288075.5,286047000.3,N
1652288095.4,286047002.4,N
1652288115.2,286047002.7,N
1652288135.1,286047002.8,N
1652288136.0,286047002.8,N
1652288155.8,286047002.0,N
1652288175.6,286047000.1,N
1652288195.5,286047002.3,N
1652288215.3,286047002.3,N
1652288235.1,286047002.7,N
1652288255.9,286047002.2,N
1652288275.7,286047002.3,N
1652288295.6,286047002.8,N
1652288315.4,286047002.8,N
1652288335.2,286047000.6,N
1652288355.1,286047000.2,N
1652288356.0,286047000.2,N
1652288375.8,286047000.8,N
1652288395.7,286047000.3,N
